Location: ?????
(31.8092°N, 35.2590°E)
Time: 18:49:58
(UTC+00:00)

ATLAS CENTAUR R/B - Pass Details

Date: 20 June 2021
Orbit: 472 x 671 km, 64.6° (Epoch: 13 June)

Event Time Altitude Azimuth Distance (km) Brightness Sun altitude
Rises 20:13:46 0° 322° (NW) 2,865 6.0 -31.0°
Reaches altitude 10° 20:16:05 10° 315° (NW) 1,989 4.9 -31.2°
Enters shadow 20:18:22 26° 296° (WNW) 1,245 3.4 -31.3°
